GW0819 Weather Reports


Display with metric or nautical units.
time (UTC)temp
F
wind
direction
speed
MPH
gust
MPH
rain 1hr
in
rain 24hr
in
rain mn
in
humidity
%
barometer
mb
20260503235232 72 245 17.0 19.0 0.00 0.00 0.00 26 1010.4
20260503234730 72 223 20.0 22.0 0.00 0.00 0.00 28 1010.3
20260503234228 72 228 26.0 28.0 0.00 0.00 0.00 29 1010.3
20260503233725 73 244 24.0 27.0 0.00 0.00 0.00 28 1010.4
20260503233220 72 243 16.0 27.0 0.00 0.00 0.00 29 1010.5
20260503232717 73 243 21.0 27.0 0.00 0.00 0.00 28 1010.7
20260503232214 73 240 27.0 28.0 0.00 0.00 0.00 28 1010.4
20260503231713 71 241 25.0 30.0 0.00 0.00 0.00 29 1010.5
20260503231209 71 239 30.0 32.0 0.00 0.00 0.00 29 1010.4
20260503230705 71 243 25.0 32.0 0.00 0.00 0.00 28 1010.5
20260503230203 72 231 17.0 26.0 0.00 0.00 0.00 29 1010.3
20260503225700 72 244 14.0 25.0 0.00 0.00 0.00 28 1010.5
20260503225159 71 251 24.0 31.0 0.00 0.00 0.00 29 1010.8
20260503224657 71 223 23.0 28.0 0.00 0.00 0.00 29 1010.7
20260503224155 72 233 22.0 29.0 0.00 0.00 0.00 30 1010.8
20260503223653 72 231 23.0 28.0 0.00 0.00 0.00 30 1010.9
20260503223149 72 228 25.0 30.0 0.00 0.00 0.00 29 1011.1
20260503222646 71 238 22.0 26.0 0.00 0.00 0.00 28 1010.9
20260503222144 72 249 21.0 35.0 0.00 0.00 0.00 28 1011.4
20260503221642 72 223 27.0 32.0 0.00 0.00 0.00 31 1011.2
20260503221139 71 200 20.0 26.0 0.00 0.00 0.00 32 1011.4
20260503220636 72 252 19.0 23.0 0.00 0.00 0.00 32 1011.1
20260503220132 72 244 18.0 30.0 0.00 0.00 0.00 31 1011.5
20260503215630 72 243 24.0 33.0 0.00 0.00 0.00 30 1011.4
20260503215126 71 208 20.0 28.0 0.00 0.00 0.00 31 1011.3
20260503214625 71 219 23.0 27.0 0.00 0.00 0.00 30 1011.8
20260503214120 71 218 18.0 29.0 0.00 0.00 0.00 30 1012.0
20260503213615 71 239 20.0 37.0 0.00 0.00 0.00 31 1011.8
20260503213110 72 236 26.0 27.0 0.00 0.00 0.00 29 1011.8
20260503212608 72 226 28.0 35.0 0.00 0.00 0.00 29 1012.2
20260503212105 71 214 19.0 28.0 0.00 0.00 0.00 31 1012.1
20260503211603 71 229 24.0 35.0 0.00 0.00 0.00 32 1012.5
20260503211058 72 228 24.0 31.0 0.00 0.00 0.00 31 1012.4
20260503210555 71 234 23.0 31.0 0.00 0.00 0.00 30 1012.9
20260503210050 71 238 30.0 32.0 0.00 0.00 0.00 29 1012.9
20260503205547 71 243 27.0 34.0 0.00 0.00 0.00 27 1012.6
20260503205043 71 243 24.0 26.0 0.00 0.00 0.00 26 1013.0
20260503204541 71 220 22.0 29.0 0.00 0.00 0.00 30 1013.0
20260503204038 71 247 24.0 33.0 0.00 0.00 0.00 30 1013.1
20260503203535 72 229 19.0 31.0 0.00 0.00 0.00 27 1013.1
20260503203032 71 232 29.0 34.0 0.00 0.00 0.00 29 1013.4
20260503202530 73 233 23.0 31.0 0.00 0.00 0.00 25 1013.4
20260503202028 72 219 17.0 30.0 0.00 0.00 0.00 26 1013.7
20260503201526 71 238 27.0 39.0 0.00 0.00 0.00 28 1013.9
20260503201022 73 217 13.0 25.0 0.00 0.00 0.00 27 1013.6
20260503200519 71 236 19.0 22.0 0.00 0.00 0.00 30 1013.6
20260503200016 72 234 18.0 32.0 0.00 0.00 0.00 29 1014.0
20260503195513 72 238 26.0 35.0 0.00 0.00 0.00 29 1014.0
20260503195009 71 240 22.0 28.0 0.00 0.00 0.00 27 1014.1
20260503194507 72 208 19.0 24.0 0.00 0.00 0.00 29 1014.0
20260503194006 71 206 20.0 23.0 0.00 0.00 0.00 29 1014.2
20260503193503 70 250 21.0 27.0 0.00 0.00 0.00 28 1014.5
20260503192958 69 204 14.0 20.0 0.00 0.00 0.00 31 1014.2
20260503192455 70 230 20.0 33.0 0.00 0.00 0.00 28 1014.3
20260503191950 69 215 15.0 22.0 0.00 0.00 0.00 32 1014.6
20260503191448 70 215 21.0 25.0 0.00 0.00 0.00 26 1014.6
20260503190944 69 217 18.0 29.0 0.00 0.00 0.00 32 1014.8
20260503190442 68 215 11.0 28.0 0.00 0.00 0.00 30 1015.0
20260503185939 69 177 14.0 31.0 0.00 0.00 0.00 32 1014.9
20260503185435 68 222 19.0 24.0 0.00 0.00 0.00 32 1015.0
20260503184934 68 208 13.0 26.0 0.00 0.00 0.00 34 1015.3
20260503184431 67 199 17.0 26.0 0.00 0.00 0.00 34 1015.3
20260503183927 68 211 13.0 23.0 0.00 0.00 0.00 34 1015.4
20260503183424 69 197 17.0 23.0 0.00 0.00 0.00 34 1015.5
20260503182921 68 225 17.0 23.0 0.00 0.00 0.00 37 1015.5
20260503182420 68 210 20.0 21.0 0.00 0.00 0.00 36 1015.7
20260503181917 67 214 20.0 23.0 0.00 0.00 0.00 37 1015.6
20260503181414 68 209 20.0 26.0 0.00 0.00 0.00 38 1015.9
20260503180910 67 229 20.0 24.0 0.00 0.00 0.00 38 1015.8
20260503180408 67 235 15.0 25.0 0.00 0.00 0.00 39 1016.0
20260503175904 67 227 20.0 24.0 0.00 0.00 0.00 38 1016.2
20260503175403 67 226 24.0 31.0 0.00 0.00 0.00 39 1016.2
20260503174858 66 215 18.0 26.0 0.00 0.00 0.00 41 1016.3
20260503174356 66 226 15.0 24.0 0.00 0.00 0.00 40 1016.3
20260503173851 66 200 18.0 23.0 0.00 0.00 0.00 42 1016.6
20260503173348 65 224 18.0 25.0 0.00 0.00 0.00 43 1016.5
20260503172844 66 223 16.0 24.0 0.00 0.00 0.00 40 1016.7
20260503172342 66 227 18.0 20.0 0.00 0.00 0.00 41 1016.8
20260503171838 66 235 26.0 30.0 0.00 0.00 0.00 42 1016.6
20260503171335 66 208 24.0 27.0 0.00 0.00 0.00 40 1016.4
20260503170832 65 238 15.0 25.0 0.00 0.00 0.00 43 1016.7
20260503170329 66 228 24.0 27.0 0.00 0.00 0.00 42 1017.0
20260503150721 59 227 19.0 27.0 0.00 0.00 0.00 61 1017.7
20260503150217 59 217 19.0 28.0 0.00 0.00 0.00 61 1018.1
20260503140142 53 230 20.0 22.0 0.00 0.00 0.00 74 1018.2
20260503131111 46 229 10.0 11.0 0.00 0.00 0.00 90 1018.2
20260503130609 45 240 7.0 8.0 0.00 0.00 0.00 90 1018.0
20260503130106 45 217 7.0 9.0 0.00 0.00 0.00 91 1018.1
20260503110459 43 244 5.0 8.0 0.00 0.00 0.00 88 1017.4
20260503090350 45 268 6.0 10.0 0.00 0.00 0.00 85 1017.7
20260503081317 46 249 7.0 9.0 0.00 0.00 0.00 83 1018.1
20260503080814 46 256 7.0 10.0 0.00 0.00 0.00 83 1017.9
20260503080311 46 248 7.0 10.0 0.00 0.00 0.00 83 1018.1
20260503072747 45 253 5.0 6.0 0.00 0.00 0.00 85 1018.2
20260503072244 45 246 6.0 7.0 0.00 0.00 0.00 84 1018.5
20260503071740 46 251 7.0 9.0 0.00 0.00 0.00 84 1018.4
20260503071238 46 248 8.0 10.0 0.00 0.00 0.00 83 1018.4
20260503070734 47 253 7.0 10.0 0.00 0.00 0.00 82 1018.4
20260503070232 46 258 8.0 9.0 0.00 0.00 0.00 83 1018.5
20260503060151 47 234 9.0 9.0 0.00 0.00 0.00 79 1018.5
20260503054638 47 250 8.0 9.0 0.00 0.00 0.00 77 1018.4
20260503054135 48 248 8.0 10.0 0.00 0.00 0.00 76 1018.7
20260503053633 47 253 8.0 10.0 0.00 0.00 0.00 77 1018.5
20260503053132 47 241 7.0 7.0 0.00 0.00 0.00 76 1018.2
20260503052628 47 251 7.0 8.0 0.00 0.00 0.00 75 1018.3
20260503052124 48 244 7.0 10.0 0.00 0.00 0.00 73 1018.2
20260503051619 49 249 9.0 11.0 0.00 0.00 0.00 73 1018.4
20260503051118 49 243 9.0 11.0 0.00 0.00 0.00 72 1018.3
20260503050614 49 240 9.0 12.0 0.00 0.00 0.00 71 1018.3
20260503050111 50 245 11.0 14.0 0.00 0.00 0.00 69 1018.4
20260503045608 50 230 9.0 12.0 0.00 0.00 0.00 69 1018.7
20260503045105 49 232 8.0 10.0 0.00 0.00 0.00 70 1018.3
20260503044601 48 241 8.0 10.0 0.00 0.00 0.00 70 1018.5
20260503044059 48 244 7.0 9.0 0.00 0.00 0.00 69 1018.2
20260503043555 49 241 7.0 10.0 0.00 0.00 0.00 68 1018.5
20260503043052 49 250 7.0 9.0 0.00 0.00 0.00 67 1018.2
20260503042549 50 243 5.0 8.0 0.00 0.00 0.00 66 1018.4
20260503042045 51 226 9.0 11.0 0.00 0.00 0.00 65 1018.3
20260503041543 51 237 7.0 9.0 0.00 0.00 0.00 64 1018.3
20260503041040 51 229 8.0 10.0 0.00 0.00 0.00 63 1018.3
20260503040537 51 220 7.0 7.0 0.00 0.00 0.00 63 1018.1
20260503040034 52 214 7.0 9.0 0.00 0.00 0.00 60 1018.4
20260503035531 52 228 8.0 11.0 0.00 0.00 0.00 60 1018.2
20260503035029 52 220 8.0 11.0 0.00 0.00 0.00 60 1018.3
20260503034526 51 227 7.0 8.0 0.00 0.00 0.00 60 1018.0
20260503034023 51 232 5.0 6.0 0.00 0.00 0.00 60 1018.0
20260503033520 52 220 4.0 5.0 0.00 0.00 0.00 59 1018.2
20260503033018 52 220 6.0 6.0 0.00 0.00 0.00 57 1018.0
20260503032516 53 216 5.0 6.0 0.00 0.00 0.00 56 1017.9
20260503032014 53 215 4.0 5.0 0.00 0.00 0.00 56 1017.7
20260503031511 53 225 6.0 6.0 0.00 0.00 0.00 55 1018.1
20260503031008 54 232 7.0 7.0 0.00 0.00 0.00 54 1018.0
20260503030504 53 229 6.0 7.0 0.00 0.00 0.00 55 1018.0
20260503030002 54 223 6.0 7.0 0.00 0.00 0.00 53 1017.4
20260503025458 55 230 6.0 6.0 0.00 0.00 0.00 52 1017.6
20260503024956 55 230 6.0 7.0 0.00 0.00 0.00 51 1017.7
20260503024451 54 234 5.0 5.0 0.00 0.00 0.00 52 1017.6
20260503023949 54 224 5.0 5.0 0.00 0.00 0.00 52 1017.6
20260503023446 54 218 5.0 5.0 0.00 0.00 0.00 52 1017.4
20260503022943 55 224 5.0 6.0 0.00 0.00 0.00 51 1017.5
20260503022438 55 235 5.0 7.0 0.00 0.00 0.00 50 1017.4
20260503021934 55 235 5.0 6.0 0.00 0.00 0.00 49 1017.7
20260503021430 57 228 7.0 7.0 0.00 0.00 0.00 46 1017.5
20260503020928 57 223 6.0 7.0 0.00 0.00 0.00 46 1017.4
20260503020426 57 232 6.0 7.0 0.00 0.00 0.00 45 1017.4
20260503015922 57 237 6.0 7.0 0.00 0.00 0.00 46 1017.3
20260503015419 57 232 5.0 6.0 0.00 0.00 0.00 45 1017.2
20260503014915 58 228 6.0 7.0 0.00 0.00 0.00 43 1017.2
20260503014412 59 230 6.0 8.0 0.00 0.00 0.00 42 1017.1
20260503013910 60 234 8.0 10.0 0.00 0.00 0.00 40 1017.1
20260503013407 60 233 7.0 8.0 0.00 0.00 0.00 40 1016.8
20260503012904 61 232 6.0 6.0 0.00 0.00 0.00 39 1017.1
20260503012402 62 238 5.0 7.0 0.00 0.00 0.00 38 1016.7
20260503011858 62 245 7.0 11.0 0.00 0.00 0.00 36 1016.8
20260503011355 63 250 10.0 13.0 0.00 0.00 0.00 36 1016.7
20260503010851 63 236 10.0 13.0 0.00 0.00 0.00 34 1016.6
20260503010348 64 245 8.0 11.0 0.00 0.00 0.00 33 1016.7
20260503005845 64 228 10.0 13.0 0.00 0.00 0.00 34 1016.7
20260503005343 64 234 11.0 17.0 0.00 0.00 0.00 34 1017.0
20260503004838 65 231 11.0 11.0 0.00 0.00 0.00 32 1016.8
20260503004336 65 219 11.0 11.0 0.00 0.00 0.00 32 1016.7
20260503003834 65 229 7.0 9.0 0.00 0.00 0.00 32 1016.8
20260503003330 65 240 7.0 11.0 0.00 0.00 0.00 32 1016.6
20260503002827 65 93 0.0 14.0 0.00 0.00 0.00 31 1016.8
20260503002324 65 215 11.0 12.0 0.00 0.00 0.00 31 1016.8
20260503001821 65 246 11.0 13.0 0.00 0.00 0.00 32 1016.7
20260503001317 65 242 12.0 17.0 0.00 0.00 0.00 31 1017.0
20260503000815 66 240 15.0 18.0 0.00 0.00 0.00 32 1017.0
20260503000312 66 237 18.0 18.0 0.00 0.00 0.00 32 1017.0
20260502235809 66 231 15.0 17.0 0.00 0.00 0.00 32 1016.8